User: anonymous   Login
Location: Betra
(48.4113°N, 8.6634°E)
Time: 18:53:27
(UTC+00:00)
Language:

CRYOSAT 2 - Orbit

View from above orbital plane
View from above orbital plane
View from above satellite
View from above satellite

Ground track
Ground track

The orbit data is extracted from the following two-line orbital elements,

1 36508U 10013A   24207.19370881  .00000448  00000-0  11040-3 0  9994
2 36508  92.0325 110.2586 0004187 122.6513 237.5099 14.51895189757711
Epoch (UTC): 25 July 2024 04:38:56
Eccentricity: 0.0004187
inclination: 92.0325°
perigee height: 716 km
apogee height: 722 km
right ascension of ascending node: 110.2586°
argument of perigee: 122.6513°
revolutions per day: 14.51895189
mean anomaly at epoch: 237.5099°
orbit number at epoch: 75771

The dashed part of the orbit path shows where the satellite is in the earth's shadow,  

DLR